This is the latest recevied weather packets stored in our database for station/object KQ4UPF. If no packets are shown the sender has not sent any weather packets the latest 1 day(s).
| Time | Temp. | Humidity | Pressure | Rain* | Wind** | Luminosity | Snow |
|---|---|---|---|---|---|---|---|
| 1778047589 | 20.56° C | 71% | 1011.5 hPa | 0 mm | 0.45 m/s, 34° | 0 W/m² | - |
| 1778047286 | 20.56° C | 72% | 1011.8 hPa | 0 mm | 0.45 m/s, 310° | 0 W/m² | - |
| 1778046983 | 20.56° C | 72% | 1011.8 hPa | 0 mm | 0.89 m/s, 68° | 0 W/m² | - |
| 1778046680 | 20.56° C | 71% | 1012 hPa | 0 mm | 0.45 m/s, 131° | 0 W/m² | - |
| 1778046377 | 20.56° C | 72% | 1011.9 hPa | 0 mm | 0 m/s | 0 W/m² | - |
| 1778046073 | 20.56° C | 71% | 1011.7 hPa | 0 mm | 0.45 m/s, 116° | 0 W/m² | - |
| 1778045771 | 20° C | 70% | 1012.2 hPa | 0 mm | 0 m/s | 0 W/m² | - |
| 1778045469 | 19.44° C | 72% | 1012.2 hPa | 0 mm | 0.45 m/s, 116° | 0 W/m² | - |
| 1778045167 | 19.44° C | 75% | 1012.3 hPa | 0 mm | 0 m/s | 0 W/m² | - |
| 1778044864 | 19.44° C | 76% | 1012.4 hPa | 0 mm | 0 m/s | 0 W/m² | - |
| 1778044561 | 19.44° C | 74% | 1012.4 hPa | 0 mm | 0 m/s | 0 W/m² | - |
| 1778044258 | 20° C | 75% | 1012.3 hPa | 0 mm | 0 m/s | 0 W/m² | - |
| 1778043955 | 19.44° C | 74% | 1012.2 hPa | 0 mm | 0 m/s | 0 W/m² | - |
| 1778043653 | 19.44° C | 76% | 1012.2 hPa | 0 mm | 0 m/s | 0 W/m² | - |
| 1778043349 | 19.44° C | 76% | 1012.3 hPa | 0 mm | 0 m/s | 0 W/m² | - |
| 1778043046 | 19.44° C | 76% | 1012.2 hPa | 0 mm | 0 m/s | 0 W/m² | - |
| 1778042744 | 19.44° C | 74% | 1012.4 hPa | 0 mm | 0 m/s | 0 W/m² | - |
| 1778042440 | 19.44° C | 75% | 1012.3 hPa | 0 mm | 0 m/s | 0 W/m² | - |
| 1778042137 | 19.44° C | 75% | 1012.4 hPa | 0 mm | 0 m/s | 0 W/m² | - |
| 1778041836 | 19.44° C | 76% | 1012.1 hPa | 0 mm | 0 m/s | 0 W/m² | - |
| 1778041535 | 19.44° C | 75% | 1012.2 hPa | 0 mm | 0 m/s | 0 W/m² | - |
| 1778041232 | 20° C | 75% | 1012.1 hPa | 0 mm | 0.45 m/s, 146° | 0 W/m² | - |
| 1778040931 | 20° C | 76% | 1012.2 hPa | 0 mm | 0 m/s | 0 W/m² | - |
| 1778040627 | 20° C | 75% | 1012.5 hPa | 0 mm | 0 m/s | 0 W/m² | - |
| 1778040325 | 20° C | 74% | 1012.3 hPa | 0 mm | 0.45 m/s, 145° | 0 W/m² | - |
* Rain latest hour (hover to see other rain measurements)
** Current wind speed in m/s (hover to see current wind gust speed)